TimeEDT,TemperatureF,Dew PointF,Humidity,Sea Level PressureIn,VisibilityMPH,Wind Direction,Wind SpeedMPH,Gust SpeedMPH,PrecipitationIn,Events,Conditions,WindDirDegrees,DateUTC
12:15 AM,45.7,42.8,90,29.98,10.0,SW,6.9,-,N/A,,Overcast,230,2012-10-06 04:15:00
12:35 AM,45.5,42.4,89,29.98,10.0,WSW,5.8,-,N/A,,Overcast,240,2012-10-06 04:35:00
12:54 AM,45.5,42.4,89,29.97,10.0,WSW,5.8,-,N/A,,Overcast,240,2012-10-06 04:54:00
1:15 AM,45.5,42.4,89,29.96,10.0,WSW,5.8,-,N/A,,Overcast,240,2012-10-06 05:15:00
1:35 AM,45.5,42.6,90,29.96,10.0,WSW,6.9,-,N/A,,Overcast,250,2012-10-06 05:35:00
1:54 AM,45.5,42.3,88,29.96,10.0,WSW,8.1,-,N/A,,Overcast,240,2012-10-06 05:54:00
2:15 AM,45.0,41.9,89,29.96,10.0,WSW,5.8,-,N/A,,Mostly Cloudy,240,2012-10-06 06:15:00
2:54 AM,44.2,41.4,90,29.95,7.0,WSW,5.8,-,N/A,,Scattered Clouds,240,2012-10-06 06:54:00
3:15 AM,44.1,41.2,90,29.95,7.0,WSW,6.9,-,N/A,,Clear,250,2012-10-06 07:15:00
3:35 AM,43.9,41.0,90,29.95,7.0,WSW,4.6,-,N/A,,Clear,240,2012-10-06 07:35:00
3:55 AM,43.3,40.6,90,29.95,7.0,WSW,5.8,-,N/A,,Clear,240,2012-10-06 07:55:00
4:15 AM,43.0,40.5,91,29.95,5.0,SW,4.6,-,N/A,,Clear,230,2012-10-06 08:15:00
4:35 AM,42.8,40.1,90,29.95,5.0,SW,5.8,-,N/A,,Clear,220,2012-10-06 08:35:00
4:55 AM,42.3,39.7,91,29.95,5.0,SW,5.8,-,N/A,,Clear,220,2012-10-06 08:55:00
5:35 AM,41.4,39.2,92,29.95,5.0,SW,5.8,-,N/A,,Clear,220,2012-10-06 09:35:00
5:55 AM,41.0,38.8,92,29.96,5.0,SW,4.6,-,N/A,,Clear,220,2012-10-06 09:55:00
6:15 AM,41.0,38.7,91,29.96,5.0,WSW,5.8,-,N/A,,Clear,240,2012-10-06 10:15:00
6:34 AM,41.0,38.7,91,29.96,5.0,WSW,5.8,-,N/A,,Mostly Cloudy,240,2012-10-06 10:34:00
6:55 AM,40.6,38.5,92,29.98,5.0,WSW,4.6,-,N/A,,Mostly Cloudy,240,2012-10-06 10:55:00
7:15 AM,40.6,38.3,91,29.98,7.0,SW,4.6,-,N/A,,Overcast,230,2012-10-06 11:15:00
7:35 AM,41.0,38.3,90,29.98,7.0,WSW,3.5,-,N/A,,Overcast,240,2012-10-06 11:35:00
7:55 AM,41.0,38.5,91,29.99,5.0,WSW,4.6,-,N/A,,Overcast,240,2012-10-06 11:55:00
8:14 AM,41.2,38.7,91,30.00,7.0,WSW,4.6,-,N/A,,Overcast,240,2012-10-06 12:14:00
8:35 AM,42.1,38.8,88,30.01,10.0,WSW,4.6,-,N/A,,Overcast,240,2012-10-06 12:35:00
8:55 AM,42.6,39.0,87,30.01,10.0,WSW,5.8,-,N/A,,Overcast,240,2012-10-06 12:55:00
9:14 AM,43.3,39.0,85,30.02,10.0,WSW,6.9,-,N/A,,Overcast,250,2012-10-06 13:14:00
9:35 AM,43.7,37.9,80,30.02,10.0,WSW,5.8,-,N/A,,Mostly Cloudy,240,2012-10-06 13:35:00
9:55 AM,44.6,37.8,77,30.02,10.0,WSW,8.1,-,N/A,,Scattered Clouds,240,2012-10-06 13:55:00
10:15 AM,46.4,35.2,65,30.02,10.0,West,10.4,17.3,N/A,,Scattered Clouds,270,2012-10-06 14:15:00
10:35 AM,46.9,33.3,59,30.02,10.0,West,12.7,20.7,N/A,,Overcast,280,2012-10-06 14:35:00
10:55 AM,46.8,33.4,60,30.03,10.0,West,13.8,18.4,N/A,,Overcast,260,2012-10-06 14:55:00
11:15 AM,46.9,31.6,55,30.03,10.0,West,16.1,23.0,N/A,,Overcast,270,2012-10-06 15:15:00
11:35 AM,46.9,32.0,56,30.03,10.0,West,13.8,20.7,N/A,,Overcast,260,2012-10-06 15:35:00
11:55 AM,46.9,30.2,52,30.03,10.0,West,10.4,21.9,N/A,,Overcast,270,2012-10-06 15:55:00
12:15 PM,47.5,31.1,53,30.03,10.0,WNW,10.4,23.0,N/A,,Overcast,290,2012-10-06 16:15:00
12:35 PM,48.0,31.8,54,30.04,10.0,West,10.4,-,N/A,,Overcast,280,2012-10-06 16:35:00
12:55 PM,49.1,32.2,52,30.04,10.0,West,13.8,19.6,N/A,,Overcast,260,2012-10-06 16:55:00
1:15 PM,48.4,31.8,53,30.04,10.0,WSW,16.1,21.9,N/A,,Overcast,250,2012-10-06 17:15:00
1:35 PM,48.2,32.4,54,30.04,10.0,West,11.5,17.3,N/A,,Overcast,260,2012-10-06 17:35:00
1:55 PM,49.5,31.3,50,30.04,10.0,West,12.7,20.7,N/A,,Overcast,260,2012-10-06 17:55:00
2:15 PM,49.1,31.8,51,30.04,10.0,West,10.4,18.4,N/A,,Overcast,270,2012-10-06 18:15:00
2:35 PM,48.9,31.1,50,30.04,10.0,West,11.5,18.4,N/A,,Overcast,280,2012-10-06 18:35:00
2:55 PM,48.6,31.3,51,30.05,10.0,West,12.7,21.9,N/A,,Overcast,280,2012-10-06 18:55:00
3:15 PM,49.3,31.8,51,30.05,10.0,West,9.2,19.6,N/A,,Overcast,270,2012-10-06 19:15:00
3:35 PM,48.6,32.0,53,30.05,10.0,West,11.5,18.4,N/A,,Overcast,260,2012-10-06 19:35:00
3:55 PM,49.3,31.5,50,30.05,10.0,West,10.4,17.3,N/A,,Overcast,270,2012-10-06 19:55:00
4:15 PM,49.5,31.6,50,30.05,10.0,West,9.2,23.0,N/A,,Overcast,270,2012-10-06 20:15:00
4:35 PM,49.5,31.5,50,30.05,10.0,West,13.8,20.7,N/A,,Overcast,280,2012-10-06 20:35:00
4:54 PM,49.6,32.0,51,30.05,10.0,West,10.4,-,N/A,,Overcast,270,2012-10-06 20:54:00
5:15 PM,49.5,31.3,50,30.05,10.0,West,11.5,20.7,N/A,,Overcast,270,2012-10-06 21:15:00
5:35 PM,50.2,32.0,50,30.05,10.0,West,13.8,-,N/A,,Overcast,270,2012-10-06 21:35:00
5:55 PM,50.0,31.5,49,30.06,10.0,West,8.1,18.4,N/A,,Overcast,270,2012-10-06 21:55:00
6:15 PM,49.1,31.3,50,30.07,10.0,West,12.7,17.3,N/A,,Overcast,270,2012-10-06 22:15:00
6:34 PM,48.7,31.5,51,30.07,10.0,West,9.2,16.1,N/A,,Overcast,280,2012-10-06 22:34:00
6:55 PM,48.4,31.6,52,30.08,10.0,West,10.4,16.1,N/A,,Overcast,260,2012-10-06 22:55:00
7:15 PM,48.2,31.3,52,30.09,10.0,West,6.9,-,N/A,,Overcast,260,2012-10-06 23:15:00
7:34 PM,47.7,32.0,55,30.09,10.0,West,4.6,-,N/A,,Mostly Cloudy,260,2012-10-06 23:34:00
7:55 PM,46.4,32.7,59,30.10,10.0,WSW,5.8,-,N/A,,Scattered Clouds,250,2012-10-06 23:55:00
8:15 PM,46.0,33.1,61,30.11,10.0,WSW,5.8,-,N/A,,Scattered Clouds,240,2012-10-07 00:15:00
8:34 PM,46.4,33.4,61,30.11,10.0,WSW,5.8,-,N/A,,Mostly Cloudy,250,2012-10-07 00:34:00
8:55 PM,45.9,33.8,63,30.11,10.0,WSW,4.6,-,N/A,,Mostly Cloudy,250,2012-10-07 00:55:00
9:14 PM,45.9,34.2,64,30.11,10.0,WSW,4.6,-,N/A,,Scattered Clouds,250,2012-10-07 01:14:00
9:35 PM,45.5,34.7,66,30.11,10.0,WSW,5.8,-,N/A,,Mostly Cloudy,250,2012-10-07 01:35:00
9:54 PM,45.9,34.7,65,30.11,10.0,WSW,4.6,-,N/A,,Overcast,250,2012-10-07 01:54:00
10:15 PM,46.0,35.1,66,30.12,10.0,West,5.8,-,N/A,,Overcast,260,2012-10-07 02:15:00
10:35 PM,46.2,35.2,66,30.12,10.0,West,5.8,-,N/A,,Overcast,270,2012-10-07 02:35:00
10:54 PM,45.9,34.7,65,30.12,10.0,WNW,8.1,-,N/A,,Overcast,290,2012-10-07 02:54:00
11:15 PM,45.9,34.0,63,30.13,10.0,WNW,10.4,-,N/A,,Overcast,300,2012-10-07 03:15:00
11:35 PM,45.7,33.8,63,30.12,10.0,WNW,8.1,-,N/A,,Overcast,290,2012-10-07 03:35:00
11:54 PM,45.5,34.3,65,30.12,10.0,WNW,5.8,-,N/A,,Overcast,300,2012-10-07 03:54:00